1499040000.49,38786,16.94,73720.3,0.45,-0.23,-0.15,0,*4B
1499040001.71,38787,16.94,73726.8,0.47,-0.29,-0.27,0,*43
1499040002.89,38788,16.94,73722.5,0.45,-0.37,-0.37,0,*40
1499040004.06,38789,16.94,73722.8,0.43,-0.45,-0.45,0,*47
1499040005.23,38790,16.94,73728.0,0.43,-0.53,-0.45,0,*48
1499040006.4,38791,16.94,73738.8,0.43,-0.33,-0.41,0,*4B
1499040007.58,38792,16.94,73744.8,0.43,-0.41,-0.41,0,*4D
1499040008.75,38793,16.94,73730.3,0.43,-0.33,-0.33,0,*4C
1499040009.92,38794,16.94,73724.5,0.43,-0.33,-0.33,0,*4B
1499040011.11,38795,16.94,73712.5,0.41,-0.19,-0.15,0,*44
1499040012.29,38796,16.94,73710.3,0.43,-0.15,-0.15,0,*49
1499040013.45,38797,16.94,73704.0,0.43,-0.15,-0.07,0,*7B
1499040014.62,38798,16.94,73708.0,0.45,-0.15,-0.03,0,*76
1499040015.8,38799,16.94,73708.3,0.45,-0.03,-0.15,0,*77
1499040016.98,38800,16.94,73710.0,0.45,-0.11,-0.15,0,*4B
1499040018.18,38801,16.94,73714.8,0.45,-0.23,-0.15,0,*4B
1499040019.4,38802,16.94,73724.8,0.45,-0.27,-0.27,0,*4D
1499040020.58,38803,16.94,73724.3,0.45,-0.37,-0.37,0,*4C
1499040021.76,38804,16.94,73746.0,0.45,-0.41,-0.49,0,*43
1499040022.93,38805,16.94,73738.8,0.43,-0.45,-0.41,0,*48
1499040024.11,38806,16.94,73728.8,0.45,-0.15,-0.11,0,*4D
1499040025.33,38807,16.94,73732.8,0.45,-0.23,-0.27,0,*4C
1499040026.55,38808,16.94,73734.0,0.45,-0.27,-0.27,0,*47
1499040027.73,38809,16.94,73718.0,0.45,-0.53,-0.49,0,*4D
1499040028.9,38810,16.94,73716.3,0.45,-0.41,-0.29,0,*40
1499040030.07,38811,16.94,73714.0,0.45,-0.29,-0.29,0,*4F
1499040031.29,38812,16.94,73726.0,0.45,-0.27,-0.27,0,*4C
1499040032.51,38813,16.94,73722.0,0.45,-0.27,-0.27,0,*4D
1499040033.67,38814,16.94,73722.0,0.43,-0.29,-0.29,0,*4C
1499040034.86,38815,16.94,73722.0,0.43,-0.29,-0.27,0,*43
1499040036.08,38816,16.94,73716.3,0.45,-0.23,-0.23,0,*48
1499040037.29,38817,16.94,73722.8,0.45,-0.23,-0.15,0,*4C
1499040038.51,38818,16.94,73714.8,0.45,-0.27,-0.23,0,*42
1499040039.7,38819,16.94,73722.5,0.45,-0.29,-0.27,0,*49
1499040040.87,38820,16.94,73716.3,0.45,-0.37,-0.29,0,*42
1499040042.04,38821,16.94,73726.3,0.45,-0.37,-0.29,0,*43
1499040043.23,38822,16.94,73726.5,0.47,-0.29,-0.29,0,*4D
1499040044.43,38823,16.94,73738.0,0.47,-0.49,-0.37,0,*45
1499040045.6,38824,16.94,73724.3,0.45,-0.65,-0.65,0,*49
1499040046.77,38825,16.94,73724.8,0.43,-0.65,-0.69,0,*42
1499040047.94,38826,16.94,73718.8,0.45,-0.49,-0.49,0,*4B
1499040049.12,38827,16.94,73714.5,0.45,-0.37,-0.37,0,*4A
1499040050.29,38828,16.94,73720.5,0.43,-0.33,-0.33,0,*43
1499040051.5,38829,16.94,73724.3,0.43,-0.27,-0.27,0,*42
1499040052.72,38830,16.94,73716.8,0.45,-0.23,-0.23,0,*4C
1499040053.97,38831,16.94,73710.0,0.47,-0.23,-0.27,0,*4B
1499040055.19,38832,16.94,73704.0,0.45,-0.27,-0.27,0,*4E
1499040056.41,38833,16.94,73720.3,0.45,-0.27,-0.27,0,*4F
1499040057.63,38834,16.94,73718.8,0.45,-0.27,-0.27,0,*48
1499040058.83,38835,16.94,73722.5,0.45,-0.27,-0.29,0,*47
1499040060.0,38836,16.94,73714.0,0.45,-0.37,-0.37,0,*4A
1499040061.17,38837,16.94,73714.3,0.45,-0.37,-0.29,0,*44
1499040062.34,38838,16.94,73714.5,0.43,-0.29,-0.29,0,*42
1499040063.5,38839,16.94,73732.3,0.43,-0.33,-0.29,0,*48
1499040064.72,38840,16.94,73730.0,0.45,-0.27,-0.23,0,*4F
1499040065.94,38841,16.94,73716.0,0.45,-0.27,-0.23,0,*4E
1499040067.12,38842,16.94,73722.0,0.45,-0.15,-0.15,0,*49
1499040068.28,38843,16.94,73730.8,0.45,-0.03,-0.03,0,*48
1499040069.45,38844,16.94,73738.3,0.45,-0.03,-0.03,0,*4F
1499040070.67,38845,16.94,73734.3,0.47,-0.23,-0.15,0,*49
1499040071.89,38846,16.94,73736.8,0.45,-0.23,-0.23,0,*4D
1499040073.07,38847,16.94,73730.5,0.45,-0.15,-0.15,0,*4C
1499040074.27,38848,16.94,73704.0,0.47,-0.15,-0.15,0,*41
1499040075.48,38849,16.94,73700.3,0.47,-0.15,-0.11,0,*44
1499040076.67,38850,16.94,73742.3,0.47,-0.11,-0.03,0,*7B
1499040077.85,38851,16.94,73726.5,0.45,-0.15,-0.11,0,*4F
1499040079.1,38852,16.94,73734.3,0.47,-0.27,-0.27,0,*4A
1499040080.34,38853,16.94,73742.8,0.47,-0.27,-0.27,0,*4B
1499040081.58,38854,16.94,73738.3,0.47,-0.27,-0.27,0,*4C
1499040082.81,38855,16.94,73730.5,0.45,-0.23,-0.23,0,*4F
1499040083.98,38856,16.94,73732.8,0.45,-0.15,-0.15,0,*4C
1499040085.2,38857,16.94,73722.0,0.47,-0.29,-0.27,0,*41
1499040086.42,38858,16.94,73734.3,0.47,-0.29,-0.27,0,*4E
1499040087.66,38859,16.94,73736.8,0.47,-0.27,-0.27,0,*41
1499040088.85,38860,16.94,73738.0,0.47,-0.29,-0.29,0,*4B
1499040090.05,38861,16.94,73740.5,0.47,-0.37,-0.37,0,*4A
1499040091.22,38862,16.94,73738.5,0.45,-0.29,-0.29,0,*4B
1499040092.44,38863,16.94,73728.0,0.47,-0.29,-0.27,0,*46
1499040093.63,38864,16.94,73756.0,0.45,-0.29,-0.27,0,*43
1499040094.83,38865,16.94,73764.0,0.47,-0.29,-0.37,0,*41
1499040096.0,38866,16.94,73750.5,0.45,-0.29,-0.29,0,*4F
1499040097.16,38867,16.94,73756.8,0.45,-0.29,-0.29,0,*4E
1499040098.38,38868,16.94,73756.8,0.45,-0.23,-0.23,0,*41
1499040099.58,38869,16.94,73736.0,0.47,-0.15,-0.15,0,*42
1499040100.78,38870,16.94,73732.3,0.47,-0.03,-0.11,0,*79
1499040101.98,38871,16.94,73732.3,0.47,-0.37,-0.37,0,*4B
1499040103.16,38872,16.94,73730.3,0.45,-0.49,-0.49,0,*4A
1499040104.36,38873,16.94,73726.5,0.47,-0.41,-0.49,0,*41
1499040105.56,38874,16.94,73726.8,0.47,-0.49,-0.53,0,*45
1499040106.76,38875,16.94,73716.8,0.47,-0.41,-0.49,0,*47
1499040107.94,38876,16.94,73734.5,0.45,-0.37,-0.37,0,*4E
1499040109.13,38877,16.94,73742.3,0.47,-0.29,-0.29,0,*4D
1499040110.37,38878,16.94,73740.5,0.47,-0.23,-0.27,0,*46
1499040111.59,38879,16.94,73738.5,0.45,-0.27,-0.23,0,*45
1499040112.84,38880,16.94,73732.8,0.47,-0.27,-0.27,0,*45
1499040114.08,38881,16.94,73738.5,0.47,-0.27,-0.27,0,*44
1499040115.3,38882,16.94,73716.0,0.47,-0.27,-0.29,0,*49
1499040116.55,38883,16.94,73726.0,0.47,-0.23,-0.23,0,*46
1499040117.79,38884,16.94,73738.3,0.47,-0.23,-0.23,0,*41
1499040119.04,38885,16.94,73732.0,0.47,-0.27,-0.27,0,*40
1499040120.22,38886,16.94,73746.0,0.45,-0.37,-0.41,0,*40
1499040121.42,38887,16.94,73748.0,0.47,-0.29,-0.37,0,*4D
1499040122.61,38888,16.94,73742.3,0.47,-0.49,-0.49,0,*4D
1499040123.79,38889,16.94,73746.3,0.45,-0.49,-0.49,0,*4E
1499040124.95,38890,16.94,73746.0,0.45,-0.61,-0.61,0,*46
1499040126.13,38891,16.94,73744.3,0.45,-0.73,-0.73,0,*47
1499040127.31,38892,16.94,73754.8,0.45,-0.73,-0.73,0,*44
1499040128.49,38893,16.94,73748.0,0.45,-0.77,-0.77,0,*45
1499040129.67,38894,16.94,73738.8,0.45,-0.65,-0.73,0,*45
1499040130.86,38895,16.94,73730.8,0.41,-0.77,-0.77,0,*47
1499040132.03,38896,16.94,73734.0,0.43,-0.77,-0.77,0,*46
1499040133.22,38897,16.94,73732.8,0.41,-0.69,-0.65,0,*49
1499040134.42,38898,16.94,73718.5,0.41,-0.77,-0.77,0,*4A
1499040135.61,38899,16.94,73732.5,0.41,-0.69,-0.69,0,*4B
1499040136.8,38900,16.94,73720.0,0.41,-0.65,-0.57,0,*4B
1499040137.99,38901,16.94,73738.5,0.41,-0.45,-0.53,0,*4C
1499040139.19,38902,16.94,73736.3,0.41,-0.41,-0.41,0,*48
1499040140.37,38903,16.94,73750.3,0.43,-0.41,-0.33,0,*4E
1499040141.57,38904,16.94,73752.8,0.41,-0.41,-0.41,0,*4E
1499040142.76,38905,16.94,73764.5,0.41,-0.53,-0.53,0,*4F
1499040143.96,38906,16.94,73764.8,0.41,-0.53,-0.53,0,*4C
1499040145.15,38907,16.94,73764.5,0.41,-0.45,-0.53,0,*4A
1499040146.34,38908,16.94,73768.8,0.41,-0.45,-0.45,0,*42
1499040147.53,38909,16.94,73774.3,0.41,-0.53,-0.53,0,*43
1499040148.7,38910,16.94,73754.8,0.43,-0.45,-0.53,0,*4E
1499040149.89,38911,16.94,73758.8,0.41,-0.53,-0.53,0,*4A
1499040151.08,38912,16.94,73756.5,0.41,-0.57,-0.57,0,*49
1499040152.27,38913,16.94,73752.3,0.41,-0.53,-0.53,0,*48
1499040153.44,38914,16.94,73732.8,0.39,-0.61,-0.61,0,*40
1499040154.63,38915,16.94,73728.3,0.41,-0.57,-0.57,0,*4E
1499040155.82,38916,16.94,73740.0,0.41,-0.53,-0.45,0,*4A
1499040157.01,38917,16.94,73740.5,0.41,-0.45,-0.45,0,*4C
1499040158.2,38918,16.94,73746.8,0.41,-0.45,-0.53,0,*44
1499040159.4,38919,16.94,73750.0,0.41,-0.53,-0.57,0,*46
1499040160.59,38920,16.94,73754.0,0.41,-0.53,-0.53,0,*48
1499040161.76,38921,16.94,73758.5,0.39,-0.57,-0.57,0,*46
1499040162.93,38922,16.94,73758.0,0.39,-0.69,-0.61,0,*4D
1499040164.13,38923,16.94,73764.8,0.37,-0.65,-0.73,0,*4D
1499040165.29,38924,16.94,73764.5,0.39,-0.61,-0.61,0,*43
1499040166.46,38925,16.94,73764.8,0.39,-0.69,-0.69,0,*42
1499040167.66,38926,16.94,73770.0,0.37,-0.73,-0.65,0,*48
1499040168.82,38927,16.94,73770.3,0.39,-0.61,-0.61,0,*40
1499040169.99,38928,16.94,73768.0,0.39,-0.29,-0.29,0,*4F
1499040171.23,38929,16.94,73776.8,0.37,-0.27,-0.23,0,*44
1499040172.4,38930,16.94,73772.8,0.39,-0.19,-0.19,0,*46
1499040173.61,38931,16.94,73766.0,0.39,0.29,0.25,0,*4B
1499040174.84,38932,16.94,73766.5,0.41,0.47,0.47,0,*4B
1499040176.04,38933,16.94,73766.3,0.43,0.71,0.71,0,*48
1499040177.2,38934,16.94,73758.3,0.43,-0.03,0.05,0,*64
1499040178.37,38935,16.94,73750.3,0.43,-0.33,-0.33,0,*4E
1499040179.54,38936,16.94,73730.0,0.43,-0.53,-0.53,0,*4D
1499040180.73,38937,16.94,73744.5,0.41,-0.33,-0.33,0,*4E
1499040181.9,38938,16.94,73744.8,0.43,-0.33,-0.33,0,*43
1499040183.07,38939,16.94,73750.3,0.43,-0.33,-0.33,0,*42
1499040184.26,38940,16.94,73760.3,0.41,-0.33,-0.33,0,*4E
1499040185.46,38941,16.94,73754.3,0.41,-0.41,-0.41,0,*4F
1499040186.64,38942,16.94,73760.0,0.43,-0.33,-0.41,0,*4B
1499040187.8,38943,16.94,73762.5,0.43,-0.33,-0.33,0,*4F
1499040189.0,38944,16.94,73770.5,0.41,-0.33,-0.33,0,*4A
1499040190.19,38945,16.94,73766.5,0.41,-0.33,-0.33,0,*4B
1499040191.36,38946,16.94,73764.3,0.43,-0.19,-0.19,0,*4A
1499040192.53,38947,16.94,73748.3,0.43,-0.15,-0.07,0,*78
1499040193.71,38948,16.94,73744.0,0.43,-0.29,-0.27,0,*4A
1499040194.9,38949,16.94,73726.8,0.43,-0.15,-0.27,0,*44
1499040196.1,38950,16.94,73720.8,0.41,-0.15,-0.19,0,*43
1499040197.27,38951,16.94,73738.3,0.43,-0.15,-0.15,0,*4C
1499040198.47,38952,16.94,73728.5,0.45,-0.23,-0.15,0,*4C
1499040199.69,38953,16.94,73736.3,0.45,-0.27,-0.27,0,*48
1499040200.87,38954,16.94,73742.5,0.45,-0.29,-0.37,0,*40
1499040202.04,38955,16.94,73732.8,0.45,-0.53,-0.53,0,*4E
1499040203.21,38956,16.94,73734.8,0.43,-0.57,-0.53,0,*4F
1499040204.38,38957,16.94,73740.8,0.43,-0.65,-0.53,0,*4F
1499040205.55,38958,16.94,73744.5,0.43,-0.57,-0.53,0,*41
1499040206.72,38959,16.94,73748.5,0.43,-0.57,-0.53,0,*40
1499040207.89,38960,16.94,73750.5,0.43,-0.45,-0.41,0,*4A
1499040209.06,38961,16.94,73740.0,0.43,-0.41,-0.45,0,*4B
1499040210.26,38962,16.94,73748.3,0.41,-0.45,-0.45,0,*4E
1499040211.45,38963,16.94,73742.8,0.41,-0.45,-0.53,0,*48
1499040212.64,38964,16.94,73748.3,0.41,-0.45,-0.53,0,*4F
1499040213.8,38965,16.94,73748.8,0.43,-0.57,-0.57,0,*4B
1499040215.0,38966,16.94,73750.5,0.41,-0.57,-0.65,0,*4B
1499040216.19,38967,16.94,73758.0,0.41,-0.69,-0.69,0,*4B
1499040217.38,38968,16.94,73738.3,0.41,-0.77,-0.69,0,*4B
1499040218.57,38969,16.94,73746.0,0.41,-0.65,-0.57,0,*44
1499040219.76,38970,16.94,73748.8,0.41,-0.65,-0.65,0,*4D
1499040220.95,38971,16.94,73744.3,0.41,-0.57,-0.57,0,*4C
1499040222.14,38972,16.94,73740.0,0.41,-0.53,-0.53,0,*4F
1499040223.34,38973,16.94,73736.3,0.41,-0.53,-0.45,0,*49
1499040224.54,38974,16.94,73732.5,0.41,-0.41,-0.41,0,*49
1499040225.74,38975,16.94,73746.0,0.41,-0.41,-0.33,0,*4D
1499040226.93,38976,16.94,73738.3,0.41,-0.33,-0.33,0,*4B
1499040228.13,38977,16.94,73746.0,0.41,-0.29,-0.41,0,*44
1499040229.3,38978,16.94,73752.3,0.43,-0.41,-0.53,0,*44
1499040230.49,38979,16.94,73758.0,0.41,-0.45,-0.53,0,*43
1499040231.68,38980,16.94,73746.8,0.41,-0.45,-0.53,0,*45
1499040232.87,38981,16.94,73738.3,0.41,-0.53,-0.45,0,*44
1499040234.06,38982,16.94,73716.5,0.41,-0.53,-0.53,0,*40
1499040235.27,38983,16.94,73714.5,0.41,-0.41,-0.41,0,*41
1499040236.46,38984,16.94,73720.0,0.41,-0.33,-0.33,0,*46
1499040237.67,38985,16.94,73732.3,0.41,-0.29,-0.27,0,*49
1499040238.85,38986,16.94,73754.3,0.41,-0.29,-0.29,0,*44
1499040240.05,38987,16.94,73750.5,0.41,-0.33,-0.41,0,*40
1499040241.24,38988,16.94,73750.0,0.41,-0.69,-0.69,0,*4A
1499040242.43,38989,16.94,73750.8,0.41,-0.65,-0.65,0,*4B
1499040243.62,38990,16.94,73742.8,0.41,-0.29,-0.33,0,*48
1499040244.83,38991,16.94,73738.8,0.41,-0.29,-0.27,0,*4C
1499040246.01,38992,16.94,73734.3,0.43,-0.33,-0.41,0,*46
1499040247.2,38993,16.94,73724.3,0.41,-0.45,-0.33,0,*41
1499040248.4,38994,16.94,73720.5,0.41,-0.41,-0.33,0,*42
1499040249.6,38995,16.94,73706.8,0.41,-0.41,-0.41,0,*46
1499040250.79,38996,16.94,73702.0,0.41,-0.33,-0.33,0,*45
1499040251.98,38997,16.94,73732.0,0.41,-0.29,-0.29,0,*44
1499040253.16,38998,16.94,73738.5,0.41,-0.29,-0.29,0,*4B
1499040254.35,38999,16.94,73720.3,0.41,-0.29,-0.29,0,*4A
1499040255.52,39000,16.94,73720.0,0.43,-0.45,-0.53,0,*47
1499040256.68,39001,16.94,73704.5,0.43,-0.53,-0.53,0,*41
1499040257.88,39002,16.94,73704.0,0.41,-0.45,-0.33,0,*41
1499040259.07,39003,16.94,73692.8,0.41,-0.33,-0.33,0,*41
1499040260.25,39004,16.94,73704.8,0.43,-0.19,-0.19,0,*44
1499040261.44,39005,16.94,73722.8,0.41,-0.19,-0.19,0,*47
1499040262.63,39006,16.94,73706.8,0.43,-0.29,-0.27,0,*48
1499040263.85,39007,16.94,73708.8,0.43,-0.27,-0.27,0,*47
1499040265.06,39008,16.94,73704.8,0.43,-0.27,-0.27,0,*48
1499040266.26,39009,16.94,73720.5,0.41,-0.19,-0.19,0,*4B
1499040267.43,39010,16.94,73710.8,0.43,-0.19,-0.29,0,*42
1499040268.62,39011,16.94,73704.5,0.43,-0.27,-0.29,0,*4E
1499040269.8,39012,16.94,73722.0,0.41,-0.29,-0.29,0,*41
1499040271.02,39013,16.94,73738.0,0.45,-0.23,-0.27,0,*40
1499040272.18,39014,16.94,73762.8,0.43,-0.29,-0.29,0,*45
1499040273.36,39015,16.94,73742.3,0.43,-0.41,-0.41,0,*44
1499040274.53,39016,16.94,73710.8,0.43,-0.53,-0.57,0,*43
1499040275.71,39017,16.94,73676.3,0.43,-0.45,-0.41,0,*42
1499040276.9,39018,16.94,73702.3,0.41,-0.45,-0.45,0,*4B
1499040278.07,39019,16.94,73706.5,0.43,-0.33,-0.33,0,*48
1499040279.23,39020,16.94,73716.5,0.43,-0.33,-0.29,0,*49
1499040280.43,39021,16.94,73720.0,0.43,-0.27,-0.19,0,*4E
1499040281.6,39022,16.94,73720.3,0.43,-0.15,-0.19,0,*4C
1499040282.76,39023,16.94,73726.3,0.43,-0.29,-0.29,0,*41
1499040283.92,39024,16.94,73720.5,0.43,-0.33,-0.29,0,*4D
1499040285.09,39025,16.94,73708.0,0.45,-0.29,-0.29,0,*41
1499040286.26,39026,16.94,73714.8,0.43,-0.33,-0.33,0,*44
1499040287.42,39027,16.94,73726.0,0.43,-0.29,-0.29,0,*45
1499040288.59,39028,16.94,73724.8,0.43,-0.33,-0.33,0,*4A
1499040289.75,39029,16.94,73720.0,0.43,-0.53,-0.53,0,*4B
1499040290.94,39030,16.94,73716.3,0.41,-0.45,-0.53,0,*46
1499040292.11,39031,16.94,73710.0,0.43,-0.45,-0.45,0,*42
1499040293.29,39032,16.94,73710.8,0.43,-0.41,-0.33,0,*44
1499040294.46,39033,16.94,73710.5,0.43,-0.33,-0.33,0,*40
1499040295.63,39034,16.94,73706.8,0.43,-0.45,-0.41,0,*43
1499040296.8,39035,16.94,73724.0,0.43,-0.45,-0.45,0,*46
1499040298.0,39036,16.94,73692.8,0.43,-0.81,-0.89,0,*4D
1499040299.16,39037,16.94,73698.3,0.43,-0.65,-0.69,0,*48
1499040300.34,39038,16.94,73694.0,0.43,-0.77,-0.77,0,*4B
1499040301.53,39039,16.94,73702.3,0.41,-0.57,-0.53,0,*4C
1499040302.7,39040,16.94,73700.5,0.43,-0.45,-0.57,0,*47
1499040303.86,39041,16.94,73700.5,0.43,-0.45,-0.53,0,*42
1499040305.05,39042,16.94,73718.5,0.41,-0.45,-0.53,0,*43
1499040306.25,39043,16.94,73708.3,0.41,-0.53,-0.57,0,*41
1499040307.44,39044,16.94,73706.8,0.41,-0.69,-0.81,0,*44
1499040308.63,39045,16.94,73714.8,0.41,-0.77,-0.77,0,*43
1499040309.83,39046,16.94,73710.8,0.41,-0.77,-0.77,0,*40
1499040311.02,39047,16.94,73714.0,0.41,-0.77,-0.77,0,*41
1499040312.22,39048,16.94,73694.5,0.41,-0.69,-0.77,0,*41
1499040313.42,39049,16.94,73674.3,0.37,-0.77,-0.73,0,*4A
1499040314.62,39050,16.94,73676.0,0.37,-0.53,-0.49,0,*4D
1499040315.79,39051,16.94,73704.0,0.39,-0.37,-0.45,0,*4C
1499040316.96,39052,16.94,73700.5,0.39,-0.45,-0.45,0,*4A
1499040318.13,39053,16.94,73708.5,0.39,-0.57,-0.57,0,*4B
1499040319.3,39054,16.94,73708.8,0.39,-0.49,-0.57,0,*43
1499040320.48,39055,16.94,73706.8,0.39,-0.53,-0.53,0,*4D
1499040321.65,39056,16.94,73702.8,0.39,-0.45,-0.45,0,*4E
1499040322.82,39057,16.94,73706.3,0.39,-0.49,-0.45,0,*43
1499040323.99,39058,16.94,73718.5,0.39,-0.49,-0.57,0,*4F
1499040325.17,39059,16.94,73712.8,0.37,-0.61,-0.61,0,*4F
1499040326.34,39060,16.94,73712.3,0.39,-0.69,-0.69,0,*4B
1499040327.54,39061,16.94,73716.5,0.39,-0.81,-0.85,0,*4E
1499040328.72,39062,16.94,73710.3,0.39,-0.73,-0.81,0,*44
1499040329.92,39063,16.94,73710.3,0.37,-0.77,-0.77,0,*46
1499040331.11,39064,16.94,73714.0,0.37,-0.77,-0.77,0,*41
1499040332.31,39065,16.94,73708.0,0.37,-0.65,-0.65,0,*40
1499040333.55,39066,16.94,73700.3,0.37,-0.89,-0.97,0,*4C
1499040334.79,39067,16.94,73706.5,0.37,-0.85,-0.85,0,*42
1499040335.96,39068,16.94,73700.8,0.39,-0.69,-0.73,0,*48
1499040337.2,39069,16.94,73694.0,0.37,-0.85,-0.85,0,*4C
1499040338.4,39070,16.94,73702.0,0.37,-0.73,-0.65,0,*43
1499040339.6,39071,16.94,73714.0,0.37,-0.53,-0.53,0,*45
1499040340.76,39072,16.94,73700.8,0.35,-0.61,-0.61,0,*44
1499040341.94,39073,16.94,73708.0,0.35,-0.53,-0.53,0,*45
1499040343.11,39074,16.94,73700.5,0.35,-0.65,-0.73,0,*45
1499040344.32,39075,16.94,73708.5,0.35,-0.85,-0.77,0,*4E
1499040345.49,39076,16.94,73710.5,0.35,-0.65,-0.65,0,*40
1499040346.66,39077,16.94,73708.8,0.35,-0.53,-0.53,0,*41
1499040347.86,39078,16.94,73708.8,0.33,-0.45,-0.53,0,*4F
1499040349.03,39079,16.94,73704.5,0.35,-0.49,-0.49,0,*4F
1499040350.23,39080,16.94,73698.0,0.33,-0.53,-0.53,0,*4F
1499040351.41,39081,16.94,73700.0,0.35,-0.41,-0.49,0,*40
1499040352.59,39082,16.94,73682.5,0.35,-0.41,-0.41,0,*4B
1499040353.77,39083,16.94,73682.0,0.35,-0.33,-0.33,0,*4A
1499040354.99,39084,16.94,73674.5,0.35,-0.27,-0.27,0,*4D
1499040356.17,39085,16.94,73670.8,0.39,-0.19,-0.19,0,*40
1499040357.41,39086,16.94,73724.5,0.37,-0.23,-0.23,0,*4D
1499040358.63,39087,16.94,73706.3,0.39,-0.23,-0.23,0,*42
1499040359.87,39088,16.94,73724.3,0.37,-0.23,-0.23,0,*43
1499040361.07,39089,16.94,73700.0,0.37,-0.41,-0.49,0,*4A
1499040362.32,39090,16.94,73702.8,0.37,-0.97,-1.01,0,*74
1499040363.5,39091,16.94,73708.0,0.39,-0.73,-0.73,0,*45
1499040364.7,39092,16.94,73710.5,0.37,-0.77,-0.73,0,*4C
1499040365.91,39093,16.94,73698.0,0.37,-0.73,-0.73,0,*49
1499040367.1,39094,16.94,73690.0,0.37,-0.65,-0.61,0,*4A
1499040368.27,39095,16.94,73684.0,0.39,-0.57,-0.49,0,*4E
1499040369.47,39096,16.94,73676.8,0.37,-0.53,-0.53,0,*4C
1499040370.67,39097,16.94,73672.0,0.37,-0.41,-0.41,0,*4D
1499040371.87,39098,16.94,73674.0,0.37,-0.33,-0.41,0,*47
1499040373.09,39099,16.94,73684.3,0.37,-0.33,-0.27,0,*46
1499040374.29,39100,16.94,73696.3,0.39,-0.23,-0.19,0,*45
1499040375.53,39101,16.94,73710.5,0.37,-0.23,-0.23,0,*43
1499040376.75,39102,16.94,73734.8,0.39,-0.23,-0.23,0,*4E
1499040377.92,39103,16.94,73722.0,0.39,-0.37,-0.37,0,*4F
1499040379.1,39104,16.94,73678.5,0.39,-0.49,-0.41,0,*40
1499040380.31,39105,16.94,73684.8,0.37,-0.41,-0.41,0,*47
1499040381.5,39106,16.94,73698.5,0.37,-0.49,-0.49,0,*44
1499040382.67,39107,16.94,73688.8,0.39,-0.45,-0.45,0,*4B
1499040383.85,39108,16.94,73688.0,0.39,-0.37,-0.37,0,*44
1499040385.05,39109,16.94,73684.3,0.37,-0.49,-0.49,0,*4B
1499040386.22,39110,16.94,73702.3,0.39,-0.37,-0.37,0,*4D
1499040387.39,39111,16.94,73708.3,0.39,-0.29,-0.33,0,*47
1499040388.57,39112,16.94,73702.8,0.39,-0.33,-0.33,0,*4F
1499040389.74,39113,16.94,73700.0,0.39,-0.33,-0.33,0,*4E
1499040390.91,39114,16.94,73702.0,0.39,-0.49,-0.37,0,*40
1499040392.09,39115,16.94,73696.3,0.39,-0.73,-0.73,0,*48
1499040393.27,39116,16.94,73682.8,0.39,-0.81,-0.73,0,*46
1499040394.44,39117,16.94,73670.0,0.39,-0.49,-0.57,0,*45
1499040395.61,39118,16.94,73674.3,0.39,-0.65,-0.65,0,*45
1499040396.78,39119,16.94,73680.5,0.39,-0.49,-0.49,0,*44
1499040397.96,39120,16.94,73710.8,0.39,-0.37,-0.37,0,*4E
1499040399.13,39121,16.94,73716.8,0.39,-0.37,-0.37,0,*4F
1499040400.31,39122,16.94,73724.5,0.39,-0.57,-0.73,0,*4A
1499040401.48,39123,16.94,73726.3,0.39,-0.81,-0.81,0,*4D
1499040402.73,39124,16.94,73724.8,0.37,-1.01,-0.97,0,*7A
1499040403.98,39125,16.94,73726.0,0.37,-1.09,-1.09,0,*45
1499040405.23,39126,16.94,73728.5,0.37,-1.01,-1.01,0,*46
1499040406.48,39127,16.94,73718.3,0.37,-0.97,-0.97,0,*47
1499040407.73,39128,16.94,73684.5,0.37,-0.97,-1.01,0,*76
1499040408.9,39129,16.94,73690.5,0.35,-0.65,-0.65,0,*4B
1499040410.07,39130,16.94,73708.5,0.35,-0.53,-0.53,0,*43
1499040411.26,39131,16.94,73730.3,0.35,-0.37,-0.41,0,*43
1499040412.43,39132,16.94,73722.5,0.35,-0.37,-0.37,0,*41
1499040413.62,39133,16.94,73700.8,0.35,-0.41,-0.37,0,*41
1499040414.8,39134,16.94,73690.0,0.35,-0.41,-0.37,0,*46
1499040415.98,39135,16.94,73678.8,0.35,-0.37,-0.33,0,*42
1499040417.17,39136,16.94,73690.5,0.37,-0.33,-0.33,0,*47
1499040418.41,39137,16.94,73700.5,0.37,-0.27,-0.23,0,*42
1499040419.66,39138,16.94,73706.0,0.37,-0.23,-0.27,0,*4D
1499040420.9,39139,16.94,73718.5,0.37,-0.23,-0.27,0,*4C
1499040422.09,39140,16.94,73722.5,0.37,-0.33,-0.33,0,*46
1499040423.26,39141,16.94,73704.3,0.39,-0.45,-0.45,0,*49
1499040424.44,39142,16.94,73708.8,0.39,-0.37,-0.45,0,*4F
1499040425.64,39143,16.94,73718.8,0.37,-0.41,-0.41,0,*45
1499040426.81,39144,16.94,73720.0,0.39,-0.49,-0.57,0,*43
1499040428.01,39145,16.94,73718.3,0.37,-0.73,-0.73,0,*43
1499040429.26,39146,16.94,73720.5,0.37,-0.89,-0.85,0,*4C
1499040430.5,39147,16.94,73708.3,0.37,-0.97,-0.93,0,*45
1499040431.75,39148,16.94,73708.3,0.37,-0.97,-1.01,0,*70
1499040432.98,39149,16.94,73706.3,0.35,-1.01,-1.09,0,*45
1499040434.21,39150,16.94,73702.8,0.35,-1.01,-0.85,0,*78
1499040435.4,39151,16.94,73702.8,0.35,-0.77,-0.85,0,*49
1499040436.58,39152,16.94,73710.3,0.35,-0.77,-0.73,0,*43
1499040437.78,39153,16.94,73708.5,0.33,-0.65,-0.69,0,*4C
1499040439.0,39154,16.94,73712.3,0.33,-0.89,-0.77,0,*46
1499040440.23,39155,16.94,73714.5,0.35,-0.97,-0.97,0,*40
1499040441.48,39156,16.94,73712.5,0.33,-1.13,-1.05,0,*42
1499040442.74,39157,16.94,73702.5,0.33,-1.05,-1.05,0,*44
1499040444.0,39158,16.94,73700.0,0.33,-1.01,-1.01,0,*4B
1499040445.25,39159,16.94,73696.3,0.33,-1.01,-1.01,0,*4A
1499040446.47,39160,16.94,73698.0,0.31,-0.93,-1.01,0,*78
1499040447.71,39161,16.94,73700.8,0.29,-0.93,-0.85,0,*4D
1499040448.89,39162,16.94,73692.0,0.31,-0.77,-0.77,0,*40
1499040450.06,39163,16.94,73694.5,0.31,-0.77,-0.77,0,*41
1499040451.27,39164,16.94,73702.8,0.29,-0.81,-0.73,0,*42
1499040452.44,39165,16.94,73704.0,0.31,-0.57,-0.57,0,*47
1499040453.61,39166,16.94,73702.3,0.31,-0.57,-0.53,0,*40
1499040454.79,39167,16.94,73706.8,0.31,-0.57,-0.57,0,*45
1499040455.96,39168,16.94,73704.3,0.31,-0.53,-0.45,0,*4D
1499040457.13,39169,16.94,73702.0,0.31,-0.65,-0.57,0,*4A
1499040458.33,39170,16.94,73700.8,0.29,-0.69,-0.81,0,*4C
1499040459.51,39171,16.94,73698.5,0.31,-0.77,-0.81,0,*4B
1499040460.71,39172,16.94,73702.0,0.29,-0.73,-0.81,0,*45
1499040461.89,39173,16.94,73700.3,0.31,-0.81,-0.81,0,*40
1499040463.06,39174,16.94,73698.5,0.31,-0.81,-0.81,0,*47
1499040464.27,39175,16.94,73700.0,0.29,-0.81,-0.73,0,*42
1499040465.47,39176,16.94,73696.0,0.29,-0.73,-0.81,0,*41
1499040466.67,39177,16.94,73688.8,0.29,-0.81,-0.81,0,*4D
1499040467.84,39178,16.94,73706.5,0.27,-0.69,-0.61,0,*44
1499040469.03,39179,16.94,73710.8,0.29,-0.61,-0.61,0,*43
1499040470.24,39180,16.94,73702.3,0.29,-0.81,-0.81,0,*45
1499040471.48,39181,16.94,73704.0,0.29,-0.93,-0.93,0,*44
1499040472.73,39182,16.94,73700.3,0.29,-0.97,-1.05,0,*7D
1499040473.99,39183,16.94,73700.0,0.29,-1.09,-1.09,0,*46
1499040475.24,39184,16.94,73696.3,0.29,-0.97,-1.05,0,*7B
1499040476.49,39185,16.94,73704.8,0.29,-0.97,-0.97,0,*40
1499040477.73,39186,16.94,73702.5,0.29,-0.85,-0.85,0,*43
1499040478.91,39187,16.94,73696.8,0.27,-0.81,-0.81,0,*4C
1499040480.09,39188,16.94,73684.0,0.27,-0.73,-0.73,0,*43
1499040481.27,39189,16.94,73696.8,0.23,-0.77,-0.65,0,*45
1499040482.45,39190,16.94,73700.3,0.27,-0.69,-0.73,0,*41
1499040483.63,39191,16.94,73700.0,0.27,-0.73,-0.73,0,*4B
1499040484.81,39192,16.94,73704.8,0.27,-0.73,-0.73,0,*48
1499040485.98,39193,16.94,73692.3,0.23,-0.65,-0.65,0,*4D
1499040487.15,39194,16.94,73692.3,0.27,-0.61,-0.61,0,*4E
1499040488.32,39195,16.94,73692.0,0.27,-0.61,-0.65,0,*4B
1499040489.49,39196,16.94,73700.0,0.27,-0.69,-0.73,0,*47
1499040490.67,39197,16.94,73692.0,0.27,-0.69,-0.73,0,*46
1499040491.85,39198,16.94,73698.5,0.27,-0.81,-0.81,0,*42
1499040493.08,39199,16.94,73686.5,0.23,-0.85,-0.85,0,*47
1499040494.26,39200,16.94,73692.0,0.27,-0.81,-0.73,0,*4D
1499040495.44,39201,16.94,73694.8,0.27,-0.81,-0.73,0,*4C
1499040496.62,39202,16.94,73694.5,0.27,-0.73,-0.73,0,*42
1499040497.8,39203,16.94,73696.5,0.27,-0.73,-0.73,0,*43
1499040498.98,39204,16.94,73708.5,0.23,-0.77,-0.77,0,*40
1499040500.17,39205,16.94,73696.8,0.27,-0.73,-0.73,0,*45
1499040501.39,39206,16.94,73696.0,0.23,-0.85,-0.85,0,*42
1499040502.57,39207,16.94,73700.3,0.23,-0.77,-0.77,0,*43